CW5404 Weather Reports


time (UTC)temp
F
wind
direction
speed
knots
gust
knots
rain 1hr
in
rain 24hr
in
rain mn
in
humidity
%
barometer
mb
20260509232919 76 106 1.7 4.3 0.00 0.00 0.00 28 1014.7
20260509232420 76 94 0.0 4.3 0.00 0.00 0.00 30 1014.7
20260509231919 76 63 1.7 4.3 0.00 0.00 0.00 31 1014.7
20260509230920 75 49 0.9 5.2 0.00 0.00 0.00 32 1015.0
20260509230419 75 31 0.0 5.2 0.00 0.00 0.00 35 1015.0
20260509225919 75 37 0.9 5.2 0.00 0.00 0.00 34 1015.0
20260509225419 75 73 0.0 4.3 0.00 0.00 0.00 36 1015.2
20260509224919 75 61 0.0 6.1 0.00 0.00 0.00 36 1015.2
20260509224419 75 42 0.9 6.1 0.00 0.00 0.00 36 1015.2
20260509223919 75 54 0.0 5.2 0.00 0.00 0.00 38 1015.4
20260509223419 75 190 1.7 4.3 0.00 0.00 0.00 41 1015.4
20260509222919 75 127 0.0 6.1 0.00 0.00 0.00 41 1015.4
20260509222419 75 59 1.7 6.1 0.00 0.00 0.00 43 1015.7
20260509221919 75 31 6.1 6.1 0.00 0.00 0.00 41 1015.7
20260509221419 75 45 4.3 6.1 0.00 0.00 0.00 42 1015.7
20260509220919 75 59 0.9 6.1 0.00 0.00 0.00 44 1016.1
20260509220419 75 71 0.0 5.2 0.00 0.00 0.00 41 1016.1
20260509215919 75 56 1.7 4.3 0.00 0.00 0.00 40 1016.1
20260509215419 75 49 0.0 7.0 0.00 0.00 0.00 38 1016.2
20260509211419 74 40 1.7 5.2 0.00 0.00 0.00 42 1016.7
20260509210419 73 166 0.0 4.3 0.00 0.00 0.00 46 1016.8
20260509205919 72 52 0.9 4.3 0.00 0.00 0.00 46 1016.8
20260509204919 72 69 2.6 8.7 0.00 0.00 0.00 46 1017.0
20260509204418 72 38 1.7 6.1 0.00 0.00 0.00 45 1017.0
20260509203918 72 84 1.7 4.3 0.00 0.00 0.00 47 1017.2
20260509203419 72 325 0.9 4.3 0.00 0.00 0.00 54 1017.2
20260509202918 71 5 0.0 6.1 0.00 0.00 0.00 55 1017.2
20260509202418 71 68 2.6 6.1 0.00 0.00 0.00 53 1017.3
20260509201918 71 337 1.7 6.1 0.00 0.00 0.00 50 1017.3
20260509201418 71 28 0.0 4.3 0.00 0.00 0.00 53 1017.3
20260509200918 70 360 0.0 4.3 0.00 0.00 0.00 58 1017.7
20260509200418 69 58 1.7 5.2 0.00 0.00 0.00 59 1017.7
20260509195918 69 26 2.6 5.2 0.00 0.00 0.00 55 1017.7
20260509195418 69 64 2.6 5.2 0.00 0.00 0.00 59 1017.8
20260509194918 69 71 0.0 5.2 0.00 0.00 0.00 55 1017.8
20260509194418 70 78 1.7 2.6 0.00 0.00 0.00 59 1017.8
20260509193918 70 48 0.9 2.6 0.00 0.00 0.00 61 1018.0
20260509193418 69 65 0.0 3.5 0.00 0.00 0.00 60 1018.0
20260509192918 68 20 0.9 5.2 0.00 0.00 0.00 61 1018.0
20260509192418 68 57 1.7 6.1 0.00 0.00 0.00 58 1018.3
20260509191918 68 77 3.5 6.1 0.00 0.00 0.00 60 1018.3
20260509191417 68 298 0.9 5.2 0.00 0.00 0.00 63 1018.3
20260509190917 67 326 0.9 5.2 0.00 0.00 0.00 61 1018.4
20260509190417 67 254 0.0 6.1 0.00 0.00 0.00 61 1018.4
20260509185417 67 36 0.9 6.1 0.00 0.00 0.00 61 1018.7
20260509184917 67 58 1.7 6.1 0.00 0.00 0.00 62 1018.7
20260509184418 67 161 0.0 5.2 0.00 0.00 0.00 62 1018.7
20260509183918 67 51 0.0 5.2 0.00 0.00 0.00 64 1018.7
20260509183417 66 355 0.9 5.2 0.00 0.00 0.00 64 1018.7
20260509182917 67 22 0.9 4.3 0.00 0.00 0.00 62 1018.7
20260509182417 66 328 0.0 4.3 0.00 0.00 0.00 66 1018.8
20260509181917 65 37 4.3 4.3 0.00 0.00 0.00 65 1018.8
20260509181417 65 46 3.5 7.0 0.00 0.00 0.00 65 1018.8
20260509180917 65 66 2.6 7.0 0.00 0.00 0.00 62 1018.9
20260509180417 65 30 0.0 3.5 0.00 0.00 0.00 65 1018.9
20260509175917 64 87 0.0 4.3 0.00 0.00 0.00 65 1018.8
20260509175417 64 36 0.0 4.3 0.00 0.00 0.00 65 1019.1
20260509174917 63 75 1.7 5.2 0.00 0.00 0.00 67 1019.1
20260509174418 63 76 0.9 5.2 0.00 0.00 0.00 67 1019.1
20260509173417 64 56 1.7 2.6 0.00 0.00 0.00 67 1019.3
20260509172917 63 41 0.0 2.6 0.00 0.00 0.00 69 1019.3
20260509172417 63 52 0.0 2.6 0.00 0.00 0.00 70 1019.2
20260509171917 62 105 0.0 4.3 0.00 0.00 0.00 70 1019.2
20260509171417 62 343 0.0 4.3 0.00 0.00 0.00 70 1019.2
20260509170417 62 82 0.0 4.3 0.00 0.00 0.00 72 1019.3
20260509165917 61 198 0.9 4.3 0.00 0.00 0.00 72 1019.2
20260509165417 61 60 0.9 4.3 0.00 0.00 0.00 74 1019.5
20260509164917 61 67 2.6 4.3 0.00 0.00 0.00 75 1019.5
20260509164417 60 184 1.7 4.3 0.00 0.00 0.00 75 1019.5
20260509163917 60 38 2.6 3.5 0.00 0.00 0.00 75 1019.7
20260509163417 60 82 2.6 3.5 0.00 0.00 0.00 77 1019.7
20260509162917 59 75 2.6 3.5 0.00 0.00 0.00 75 1019.7
20260509162417 59 127 0.0 3.5 0.00 0.00 0.00 77 1019.8
20260509161917 59 53 1.7 4.3 0.00 0.00 0.00 78 1019.8
20260509161417 58 22 0.0 4.3 0.00 0.00 0.00 78 1019.8
20260509160917 58 74 0.0 3.5 0.00 0.00 0.00 79 1020.0
20260509160417 58 54 0.9 3.5 0.00 0.00 0.00 79 1020.0
20260509155917 58 42 3.5 3.5 0.00 0.00 0.00 79 1020.0
20260509155417 58 65 0.9 3.5 0.00 0.00 0.00 79 1020.1
20260509154917 58 66 0.0 3.5 0.00 0.00 0.00 79 1020.1
20260509153917 57 59 0.0 1.7 0.00 0.00 0.00 82 1020.0
20260509153417 57 49 0.0 1.7 0.00 0.00 0.00 82 1020.0
20260509152917 57 58 0.0 0.0 0.00 0.00 0.00 83 1020.0
20260509152417 57 77 0.0 0.0 0.00 0.00 0.00 83 1020.3
20260509151917 56 230 0.0 0.0 0.00 0.00 0.00 85 1020.2
20260509151417 56 232 0.0 0.0 0.00 0.00 0.00 86 1020.2
20260509150917 55 232 0.0 0.0 0.00 0.00 0.00 86 1020.3
20260509150417 54 232 0.0 0.0 0.00 0.00 0.00 86 1020.3
20260509145917 54 232 0.0 0.0 0.00 0.00 0.00 87 1020.3
20260509145417 53 232 0.0 0.0 0.00 0.00 0.00 90 1020.4
20260509144917 53 232 0.0 0.0 0.00 0.00 0.00 91 1020.4
20260509144417 52 232 0.0 0.0 0.00 0.00 0.00 91 1020.4
20260509143917 52 232 0.0 0.0 0.00 0.00 0.00 94 1020.3
20260509143417 51 232 0.0 0.0 0.00 0.00 0.00 95 1020.3
20260509142417 50 233 0.0 0.0 0.00 0.00 0.00 95 1020.1
20260509141917 50 233 0.0 0.0 0.00 0.00 0.00 97 1020.1
20260509141417 49 360 0.0 0.0 0.00 0.00 0.00 99 1020.1
20260509140917 49 360 0.0 0.0 0.00 0.00 0.00 100 1020.1
20260509140417 48 360 0.0 0.0 0.00 0.00 0.00 100 1020.1
20260509135917 47 360 0.0 0.0 0.00 0.00 0.00 100 1020.1
20260509135417 47 360 0.0 0.0 0.00 0.00 0.00 100 1020.2
20260509134917 46 360 0.0 0.0 0.00 0.00 0.00 97 1020.2
20260509134417 46 232 0.0 0.0 0.00 0.00 0.00 96 1020.2
20260509133917 45 360 0.0 0.0 0.00 0.00 0.00 95 1020.1
20260509133417 45 232 0.0 0.0 0.00 0.00 0.00 95 1020.1
20260509132917 45 360 0.0 0.0 0.00 0.00 0.00 95 1020.1
20260509132417 45 360 0.0 0.0 0.00 0.00 0.00 95 1020.1
20260509131917 45 360 0.0 0.0 0.00 0.00 0.00 94 1020.1
20260509131417 45 232 0.0 0.0 0.00 0.00 0.00 94 1020.1
20260509130917 45 233 0.0 0.0 0.00 0.00 0.00 94 1020.1
20260509130417 45 233 0.0 0.0 0.00 0.00 0.00 94 1020.1
20260509125917 45 233 0.0 0.0 0.00 0.00 0.00 94 1020.1
20260509124917 45 233 0.0 0.0 0.00 0.00 0.00 93 1020.0
20260509124417 45 233 0.0 0.0 0.00 0.00 0.00 93 1020.0
20260509123917 46 233 0.0 0.0 0.00 0.00 0.00 94 1020.2
20260509123417 46 233 0.0 0.0 0.00 0.00 0.00 93 1020.2
20260509122916 46 233 0.0 0.0 0.00 0.00 0.00 93 1020.2
20260509122417 46 233 0.0 0.0 0.00 0.00 0.00 93 1020.2
20260509121917 46 233 0.0 0.0 0.00 0.00 0.00 93 1020.2
20260509121416 46 233 0.0 0.0 0.00 0.00 0.00 93 1020.2
20260509120917 46 233 0.0 0.0 0.00 0.00 0.00 93 1020.4
20260509120417 46 233 0.0 0.0 0.00 0.00 0.00 92 1020.4
20260509115917 46 233 0.0 0.0 0.00 0.00 0.00 92 1020.4
20260509115417 46 233 0.0 0.0 0.00 0.00 0.00 92 1020.3
20260509114917 46 233 0.0 0.0 0.00 0.00 0.00 92 1020.3
20260509114416 46 233 0.0 0.0 0.00 0.00 0.00 92 1020.3
20260509113917 46 233 0.0 0.0 0.00 0.00 0.00 92 1020.4
20260509113416 46 233 0.0 0.0 0.00 0.00 0.00 92 1020.4
20260509112917 46 233 0.0 0.0 0.00 0.00 0.00 92 1020.4
20260509111917 46 233 0.0 0.0 0.00 0.00 0.00 92 1020.4
20260509111416 46 233 0.0 0.0 0.00 0.00 0.00 92 1020.4
20260509110916 46 233 0.0 0.0 0.00 0.00 0.00 91 1020.4
20260509110416 46 233 0.0 0.0 0.00 0.00 0.00 91 1020.4
20260509105916 46 232 0.0 0.0 0.00 0.00 0.00 91 1020.4
20260509104916 47 232 0.0 0.0 0.00 0.00 0.00 91 1020.7
20260509103917 47 233 0.0 0.0 0.00 0.00 0.00 91 1020.8
20260509103416 47 233 0.0 0.0 0.00 0.00 0.00 91 1020.8
20260509101416 47 232 0.0 0.0 0.00 0.00 0.00 90 1020.8
20260509092917 48 232 0.0 0.0 0.00 0.00 0.00 90 1020.8
20260509092416 48 232 0.0 0.0 0.00 0.00 0.00 90 1021.0
20260509090916 49 232 0.0 0.0 0.00 0.00 0.00 90 1021.1
20260509090416 49 232 0.0 0.0 0.00 0.00 0.00 89 1021.1
20260509085416 49 232 0.0 0.0 0.00 0.00 0.00 89 1021.2
20260509084916 49 232 0.0 0.0 0.00 0.00 0.00 89 1021.2
20260509083415 49 232 0.0 0.0 0.00 0.00 0.00 89 1021.2
20260509082915 49 232 0.0 0.0 0.00 0.00 0.00 89 1021.2
20260509082415 50 232 0.0 0.0 0.00 0.00 0.00 88 1021.3
20260509081916 50 232 0.0 0.0 0.00 0.00 0.00 88 1021.3
20260509081416 50 232 0.0 0.0 0.00 0.00 0.00 88 1021.3
20260509080916 50 232 0.0 0.0 0.00 0.00 0.00 88 1021.3
20260509075915 51 232 0.0 0.0 0.00 0.00 0.00 88 1021.3
20260509074916 51 232 0.0 0.0 0.00 0.00 0.00 87 1021.3
20260509074415 51 232 0.0 0.0 0.00 0.00 0.00 87 1021.3
20260509073916 51 233 0.0 0.0 0.00 0.00 0.00 86 1021.3
20260509073416 51 232 0.0 0.0 0.00 0.00 0.00 86 1021.3
20260509072916 51 232 0.0 0.0 0.00 0.00 0.00 86 1021.3
20260509071916 52 232 0.0 0.0 0.00 0.00 0.00 85 1021.3
20260509071415 52 232 0.0 0.0 0.00 0.00 0.00 84 1021.3
20260509070915 52 232 0.0 0.0 0.00 0.00 0.00 84 1021.3
20260509070415 53 232 0.0 0.0 0.00 0.00 0.00 83 1021.3
20260509065915 53 232 0.0 0.0 0.00 0.00 0.00 82 1021.3
20260509065415 53 232 0.0 0.0 0.00 0.00 0.00 82 1021.3
20260509064915 53 232 0.0 0.0 0.00 0.00 0.00 82 1021.3
20260509063915 54 232 0.0 0.0 0.00 0.00 0.00 81 1021.3
20260509062915 55 232 0.0 0.0 0.00 0.00 0.00 80 1021.3
20260509062415 55 232 0.0 0.0 0.00 0.00 0.00 79 1021.3
20260509061915 55 232 0.0 0.0 0.00 0.00 0.00 79 1021.3
20260509061415 56 232 0.0 0.0 0.00 0.00 0.00 79 1021.3
20260509060915 56 232 0.0 0.0 0.00 0.00 0.00 78 1021.3
20260509060415 56 232 0.0 0.0 0.00 0.00 0.00 78 1021.3
20260509055915 57 232 0.0 0.0 0.00 0.00 0.00 77 1021.4
20260509055415 57 232 0.0 0.9 0.00 0.00 0.00 76 1021.3
20260509054915 57 232 0.0 0.9 0.00 0.00 0.00 76 1021.3
20260509054415 57 232 0.0 0.0 0.00 0.00 0.00 75 1021.3
20260509053914 58 233 0.0 0.0 0.00 0.00 0.00 74 1021.4
20260509053415 58 233 0.0 0.0 0.00 0.00 0.00 74 1021.4
20260509052914 58 233 0.0 0.0 0.00 0.00 0.00 73 1021.4
20260509052414 58 233 0.0 0.0 0.00 0.00 0.00 72 1021.2
20260509051915 59 233 0.0 0.0 0.00 0.00 0.00 72 1021.2
20260509051415 59 230 0.0 0.0 0.00 0.00 0.00 72 1021.2
20260509050915 59 230 0.0 0.0 0.00 0.00 0.00 71 1021.0
20260509050415 60 231 0.0 0.0 0.00 0.00 0.00 71 1021.0
20260509045915 60 231 0.0 0.0 0.00 0.00 0.00 70 1021.0
20260509045415 60 229 0.0 0.0 0.00 0.00 0.00 70 1020.8
20260509044914 60 229 0.0 0.0 0.00 0.00 0.00 70 1020.8
20260509044415 60 229 0.0 0.0 0.00 0.00 0.00 69 1020.8
20260509043915 60 229 0.0 0.0 0.00 0.00 0.00 69 1020.7
20260509043415 60 229 0.0 0.0 0.00 0.00 0.00 69 1020.7
20260509042914 61 229 0.0 0.0 0.00 0.00 0.00 69 1020.8
20260509042414 61 229 0.0 0.0 0.00 0.00 0.00 68 1020.6
20260509041914 61 229 0.0 0.0 0.00 0.00 0.00 68 1020.6
20260509041414 61 229 0.0 0.0 0.00 0.00 0.00 68 1020.6
20260509040914 61 229 0.0 0.0 0.00 0.00 0.00 67 1020.5
20260509040414 61 229 0.0 0.0 0.00 0.00 0.00 67 1020.5
20260509035914 62 226 0.0 0.0 0.00 0.00 0.00 66 1020.5
20260509035414 62 226 0.0 0.9 0.00 0.00 0.00 66 1020.3
20260509034914 62 197 0.0 0.9 0.00 0.00 0.00 65 1020.3
20260509034414 62 197 0.0 0.9 0.00 0.00 0.00 66 1020.3
20260509033914 62 197 0.0 0.9 0.00 0.00 0.00 66 1020.3
20260509033414 62 197 0.0 1.7 0.00 0.00 0.00 65 1020.3
20260509032914 63 198 0.0 2.6 0.00 0.00 0.00 65 1020.3
20260509032414 63 234 0.0 2.6 0.00 0.00 0.00 64 1020.3
20260509031914 63 338 0.0 0.0 0.00 0.00 0.00 64 1020.3
20260509031414 63 338 0.0 0.0 0.00 0.00 0.00 64 1020.3
20260509030914 63 339 0.0 0.0 0.00 0.00 0.00 64 1020.2
20260509030413 63 340 0.0 1.7 0.00 0.00 0.00 64 1020.2
20260509025913 64 340 0.0 1.7 0.00 0.00 0.00 64 1020.2
20260509025413 64 150 0.0 0.9 0.00 0.00 0.00 63 1020.1
20260509024913 64 150 0.9 2.6 0.00 0.00 0.00 62 1020.1
20260509024413 64 150 0.0 2.6 0.00 0.00 0.00 62 1020.1
20260509023913 64 76 0.0 0.9 0.00 0.00 0.00 62 1020.0
20260509023413 64 314 0.0 0.0 0.00 0.00 0.00 62 1020.0
20260509022913 64 313 0.0 0.9 0.00 0.00 0.00 61 1020.0
20260509022413 65 309 0.0 0.9 0.00 0.00 0.00 61 1019.9
20260509021913 65 321 0.0 1.7 0.00 0.00 0.00 60 1019.9
20260509021413 65 229 0.0 1.7 0.00 0.00 0.00 61 1019.9
20260509020913 65 225 0.0 1.7 0.00 0.00 0.00 61 1020.0
20260509020414 66 5 0.9 3.5 0.00 0.00 0.00 59 1020.0
20260509015913 66 236 0.9 3.5 0.00 0.00 0.00 58 1020.0
20260509015413 66 306 0.9 3.5 0.00 0.00 0.00 58 1020.0
20260509014913 66 213 0.0 3.5 0.00 0.00 0.00 58 1020.0
20260509014413 66 193 1.7 3.5 0.00 0.00 0.00 57 1020.0
20260509013913 66 84 0.0 1.7 0.00 0.00 0.00 58 1020.0
20260509013413 67 99 0.0 2.6 0.00 0.00 0.00 57 1020.0
20260509012913 67 53 0.9 2.6 0.00 0.00 0.00 57 1020.0
20260509012413 67 340 0.9 1.7 0.00 0.00 0.00 56 1020.2
20260509011913 67 22 0.0 4.3 0.00 0.00 0.00 59 1020.2
20260509011413 67 284 0.9 4.3 0.00 0.00 0.00 56 1020.2
20260509010413 67 219 0.0 3.5 0.00 0.00 0.00 57 1020.3
20260509005913 68 162 0.9 3.5 0.00 0.00 0.00 57 1020.3
20260509005413 68 94 2.6 3.5 0.00 0.00 0.00 55 1020.3
20260509004913 68 126 0.0 2.6 0.00 0.00 0.00 55 1020.3
20260509004413 68 55 2.6 6.1 0.00 0.00 0.00 58 1020.3
20260509003913 68 254 0.0 6.1 0.00 0.00 0.00 55 1020.3
20260509003413 69 296 0.9 4.3 0.00 0.00 0.00 55 1020.3
20260509002913 69 55 0.0 4.3 0.00 0.00 0.00 52 1020.3
20260509002413 69 9 0.9 1.7 0.00 0.00 0.00 55 1020.3
20260509001913 69 237 0.0 1.7 0.00 0.00 0.00 53 1020.3
20260509000913 68 261 0.0 1.7 0.00 0.00 0.00 56 1020.3
20260508234412 68 38 1.7 2.6 0.00 0.00 0.00 55 1020.4
20260508233912 68 259 0.0 5.2 0.00 0.00 0.00 54 1020.6